Location: *
(60.1759°S, 155.0663°W)
Time: 07:58:49
(UTC+00:00)

Cosmos 1980 Rocket - Pass Details

Date: 17 September 2019
Orbit: 828 x 851 km, 71.0° (Epoch: 18 October)

Event Time Altitude Azimuth Distance (km) Brightness Sun altitude
Rises 14:45:36 0° 219° (SW) 3,440 5.2 -12.8°
Reaches altitude 10° 14:48:10 10° 225° (SW) 2,496 4.4 -12.5°
Maximum altitude 14:53:34 45° 295° (WNW) 1,146 2.5 -11.9°
Drops below altitude 10° 14:58:55 10° 6° (N) 2,459 4.5 -11.2°
Sets 15:01:25 0° 12° (NNE) 3,384 5.3 -10.9°
